[[{"header":{"parameterUnit":"m.s-1","parameterCategory":1,"la1":30.2991,"la2":30.254,"lo1":-89.0895,"lo2":-89.0444,"dy":0.0017,"dx":0.0017,"nx":28,"ny":28,"refTime":"2024-08-11T03:00:00:Z","depth":0,"parameterNumber":2,"parameterNumberName":"U-component_of_WINDS"},"data":[0,0,0,0,0,0,0,0,0,0,0,0,0,0,0,0,0,0,0,0,0,0,0,0,0,0,0,0,0,0,0,0,0,0,0,0,0,0,0,0,0,0,0,0,0,0,0,0,0,0,0,0,0,0,0,0,0,0,2.4368,2.4369,0,2.4521,2.4523,2.4525,2.4551,2.455,2.4548,2.4547,2.4704,2.471,2.4715,0,0,0,0,0,0,0,0,0,0,0,0,0,2.4096,2.4101,2.4368,2.437,2.4371,2.4521,2.4523,2.4525,2.4551,2.455,2.4548,2.4547,2.4703,2.4709,2.4716,0,0,0,0,0,0,0,0,0,0,0,0,0,2.4228,2.4102,2.4367,2.4403,2.4407,2.4521,2.4523,2.4526,2.4552,2.455,2.4548,2.4546,2.4701,2.4708,2.4716,2.4805,0,0,2.4741,2.4745,0,0,0,0,0,0,0,0,2.4221,2.4238,2.4395,2.44,2.4406,2.4515,2.4485,2.462,2.4552,2.4497,2.4547,2.4545,2.4643,2.4656,2.4689,2.4813,2.482,2.4742,2.4747,2.475,2.4753,0,0,0,0,0,0,0,2.4211,2.4232,2.4428,2.4398,2.4404,2.441,2.4427,2.4511,2.4579,2.4501,2.4504,2.4522,2.4645,2.4681,2.4693,2.4822,2.4742,2.4749,2.4754,2.4757,2.5025,2.5027,0,0,0,0,0,0,2.4196,2.4224,2.4424,2.4433,2.4306,2.4417,2.4435,2.4482,2.4578,2.4591,2.4523,2.4522,2.4668,2.4683,2.4698,2.4807,2.475,2.4758,2.4762,2.5023,2.5025,2.5028,0,0,0,0,0,0,2.419,2.4214,2.4417,2.4329,2.4356,2.4424,2.4476,2.4486,2.4521,2.4594,2.4607,2.4547,2.4667,2.4687,2.4778,2.4813,2.4761,2.4769,2.502,2.5023,2.5027,2.5027,0,0,0,0,0,0,2.4182,2.4211,2.4246,2.433,2.436,2.4495,2.4478,2.449,2.4535,2.4536,2.462,2.4632,2.4667,2.4766,2.4786,2.4823,2.4775,2.5017,2.5022,2.5026,2.5024,2.503,2.5035,0,0,0,0,0,2.4172,2.424,2.4248,2.4272,2.4405,2.4497,2.4514,2.4553,2.4538,2.4573,2.462,2.4629,2.4806,2.4775,2.4798,2.4838,2.5015,2.502,2.5025,2.5021,2.5028,2.5034,0,0,0,0,0,0,2.4159,2.4252,2.4261,2.4358,2.4419,2.4501,2.4546,2.456,2.4626,2.4624,2.467,2.4688,2.4777,2.4817,2.478,2.4929,2.491,2.4919,2.4899,2.4906,2.4911,2.4899,2.4782,0,0,0,0,0,2.4167,2.4234,2.4312,2.439,2.442,2.4478,2.452,2.4544,2.4609,2.4635,2.4689,2.4752,2.4821,2.4866,2.4935,2.503,2.5048,2.5069,2.5075,2.5079,2.5086,2.5138,2.5148,2.5044,2.5044,2.5044,0,0,2.4185,2.4244,2.4284,2.4389,2.4439,2.4507,2.45,2.4572,2.4622,2.4647,2.4735,2.4777,2.485,2.4943,2.4987,2.4979,2.5119,2.5085,2.5088,2.5093,2.5144,2.5154,2.5162,2.5048,2.5047,2.5047,0,0,2.4251,2.4304,2.4374,2.4424,2.45,2.4538,2.4555,2.4635,2.4663,2.4753,2.4772,2.4833,2.4953,2.5003,2.5045,2.513,2.5141,2.5151,2.5179,2.5229,2.5237,2.5244,2.5273,2.5283,2.5159,2.5159,2.5159,0,2.4263,2.4367,2.4408,2.4479,2.4524,2.4549,2.462,2.4667,2.4761,2.4792,2.4782,2.4931,2.4983,2.5087,2.5108,2.5141,2.5161,2.5141,2.5232,2.524,2.5248,2.5275,2.5286,2.516,2.5159,2.5159,2.5159,0,2.4377,2.4448,2.4495,2.4586,2.4636,2.4707,2.4758,2.4805,2.4825,2.4864,2.4954,2.5017,2.5097,2.5124,2.5145,2.5232,2.5224,2.5223,2.5205,2.5257,2.5284,2.5295,2.516,2.516,2.516,2.516,0,0,2.4438,2.455,2.4567,2.4607,2.4693,2.4749,2.482,2.4899,2.4937,2.5002,2.5062,2.5162,2.5161,2.5208,2.5235,2.5279,2.534,2.5272,2.5275,2.5281,2.5437,2.5436,2.5448,2.5349,2.5351,2.5353,2.5431,0,2.4513,2.4641,2.468,2.4787,2.4852,2.4877,2.4939,2.4998,2.5037,2.5097,2.514,2.5209,2.5204,2.5232,2.5277,2.5323,2.5372,2.5318,2.5404,2.5406,2.5382,2.5462,2.5462,2.5532,2.5442,2.5443,2.5445,0,2.4617,2.4683,2.4797,2.4873,2.4902,2.4957,2.5032,2.509,2.5157,2.5182,2.5234,2.5257,2.5332,2.5311,2.5413,2.5376,2.5414,2.5441,2.5445,2.5453,2.5427,2.547,2.5556,2.5566,2.5462,2.5461,2.5459,0,2.4648,2.4765,2.4848,2.4882,2.4974,2.5012,2.5052,2.5118,2.5162,2.5227,2.5256,2.533,2.537,2.5426,2.5468,2.5448,2.5566,2.5549,2.5588,2.5587,2.561,2.5608,2.5701,2.5637,2.5637,2.5637,2.5637,0,2.4726,2.4794,2.4862,2.4913,2.499,2.5034,2.5108,2.515,2.5208,2.5266,2.5293,2.5347,2.54,2.5461,2.5495,2.5574,2.5593,2.5614,2.5621,2.561,2.5607,2.5634,2.5629,2.564,2.5639,2.5639,2.5638,0,2.4772,2.4821,2.4912,2.4992,2.5014,2.5066,2.5134,2.5184,2.5224,2.5297,2.5317,2.5379,2.5452,2.55,2.5594,2.5616,2.5702,2.571,2.5679,2.5682,2.5718,2.5713,2.583,2.5847,2.5774,2.5774,2.5775,0,2.4818,2.4871,2.4956,2.4997,2.5037,2.5104,2.5149,2.5195,2.5241,2.5321,2.5361,2.5436,2.5498,2.5614,2.5667,2.5739,2.5747,2.5783,2.5758,2.5744,2.5745,2.5741,2.5745,2.5786,2.5787,2.5787,2.5788,0,2.4893,2.4915,2.4979,2.5052,2.5106,2.5165,2.5225,2.5257,2.5313,2.5363,2.5439,2.5487,2.5582,2.5656,2.5732,2.5773,2.5789,2.5795,2.5808,2.5796,2.5775,2.5785,2.5688,2.5792,2.5792,2.5791,2.5791,2.5791,2.494,2.4987,2.5054,2.5125,2.5175,2.523,2.528,2.5325,2.5389,2.547,2.5494,2.5571,2.5637,2.5741,2.5783,2.5845,2.584,2.5859,2.5863,2.5867,2.5866,2.5767,2.5859,2.5859,2.5859,2.5859,2.5859,0,2.5014,2.5059,2.5124,2.5206,2.5262,2.5273,2.5339,2.5384,2.5453,2.5513,2.5573,2.5659,2.5731,2.5789,2.5863,2.5901,2.591,2.5918,2.5915,2.5924,2.5866,2.5847,2.5909,2.5909,2.5909,2.5909,2.5909,2.5909,2.506,2.514,2.5169,2.5274,2.5319,2.5395,2.5432,2.5482,2.553,2.5625,2.5684,2.5722,2.5781,2.5859,2.5925,2.5941,2.5966,2.5972,2.5989,2.5934,2.5928,2.5922,2.5905,2.5978,2.5978,2.6041,2.6042,2.6042]},{"header":{"parameterUnit":"m.s-1","parameterCategory":1,"la1":30.2991,"la2":30.254,"lo1":-89.0895,"lo2":-89.0444,"dy":0.0017,"dx":0.0017,"nx":28,"ny":28,"refTime":"2024-08-11T03:00:00:Z","depth":0,"parameterNumber":3,"parameterNumberName":"V-component_of_WINDS"},"data":[0,0,0,0,0,0,0,0,0,0,0,0,0,0,0,0,0,0,0,0,0,0,0,0,0,0,0,0,0,0,0,0,0,0,0,0,0,0,0,0,0,0,0,0,0,0,0,0,0,0,0,0,0,0,0,0,0,0,4.1365,4.1365,0,4.1328,4.1327,4.1327,4.1253,4.1251,4.125,4.1248,4.1211,4.1211,4.1211,0,0,0,0,0,0,0,0,0,0,0,0,0,4.1373,4.1373,4.1365,4.1365,4.1364,4.1328,4.1327,4.1327,4.1253,4.1251,4.1249,4.1248,4.1211,4.1211,4.1211,0,0,0,0,0,0,0,0,0,0,0,0,0,4.1356,4.1373,4.1365,4.1323,4.1319,4.1328,4.1327,4.1327,4.1253,4.1251,4.1249,4.1247,4.121,4.1211,4.1212,4.1259,0,0,4.1213,4.1214,0,0,0,0,0,0,0,0,4.1357,4.1356,4.133,4.1326,4.1321,4.1293,4.1316,4.1304,4.1254,4.1278,4.1248,4.1246,4.124,4.1238,4.1236,4.1257,4.1256,4.1213,4.1214,4.1214,4.1214,0,0,0,0,0,0,0,4.1358,4.1357,4.135,4.1329,4.1324,4.1306,4.1301,4.1314,4.1272,4.1276,4.127,4.1267,4.1237,4.1235,4.1234,4.1255,4.1213,4.1214,4.1214,4.1214,4.1313,4.1315,0,0,0,0,0,0,4.1366,4.1359,4.1352,4.1349,4.1334,4.1308,4.1302,4.1304,4.1271,4.1264,4.1269,4.1264,4.1235,4.1234,4.1233,4.1285,4.1214,4.1214,4.1215,4.131,4.1313,4.1316,0,0,0,0,0,0,4.1366,4.1366,4.1353,4.1352,4.1349,4.131,4.1313,4.1304,4.1302,4.1266,4.1258,4.1275,4.1234,4.1232,4.1253,4.1282,4.1215,4.1215,4.1308,4.1311,4.1314,4.139,0,0,0,0,0,0,4.1367,4.1366,4.1384,4.1353,4.135,4.1374,4.1314,4.1305,4.1304,4.1296,4.127,4.1263,4.1232,4.1252,4.1253,4.1282,4.1216,4.1305,4.1309,4.1313,4.1385,4.1396,4.1405,0,0,0,0,0,4.1367,4.1407,4.1385,4.1385,4.1371,4.1376,4.1374,4.1337,4.1306,4.1323,4.13,4.1264,4.1279,4.1255,4.1256,4.1285,4.1303,4.1308,4.1313,4.138,4.1394,4.1405,0,0,0,0,0,0,4.1443,4.1403,4.1378,4.1409,4.1396,4.1363,4.1384,4.1352,4.1348,4.1342,4.1296,4.1291,4.1317,4.1303,4.1277,4.1328,4.1285,4.1291,4.1336,4.1349,4.1359,4.1361,4.1216,0,0,0,0,0,4.1463,4.147,4.1435,4.1466,4.1461,4.1424,4.1425,4.1397,4.1382,4.1377,4.1355,4.1342,4.1343,4.1346,4.1345,4.1383,4.1375,4.1403,4.1414,4.1422,4.1427,4.1444,4.1456,4.1332,4.1332,4.1332,0,0,4.1505,4.1484,4.1492,4.1481,4.1468,4.1476,4.142,4.1431,4.1437,4.1378,4.1396,4.138,4.1362,4.1392,4.1403,4.1381,4.146,4.1429,4.1436,4.1436,4.1451,4.1462,4.1473,4.1336,4.1335,4.1335,0,0,4.1585,4.1571,4.1594,4.1582,4.1563,4.1538,4.1544,4.1516,4.1502,4.1519,4.1475,4.1482,4.1486,4.1475,4.147,4.1546,4.1512,4.1548,4.16,4.1617,4.1627,4.1635,4.1661,4.1671,4.1553,4.1553,4.1553,0,4.164,4.165,4.1611,4.1624,4.162,4.1568,4.1591,4.1582,4.1564,4.1562,4.1537,4.1541,4.1526,4.1551,4.1569,4.1567,4.1572,4.1549,4.1629,4.1637,4.1644,4.1668,4.1678,4.1557,4.1557,4.1556,4.1556,0,4.1717,4.1726,4.1747,4.173,4.1729,4.1747,4.171,4.1714,4.1687,4.1665,4.1682,4.1662,4.1656,4.1661,4.1635,4.1682,4.1668,4.1637,4.1592,4.1661,4.1682,4.1691,4.1563,4.1562,4.156,4.1559,0,0,4.1843,4.1804,4.1812,4.1803,4.1778,4.1784,4.18,4.1794,4.1797,4.1787,4.1798,4.1803,4.1774,4.1768,4.1741,4.1757,4.1816,4.1723,4.1722,4.174,4.1865,4.1887,4.1899,4.1794,4.1796,4.1797,4.1866,0,4.1916,4.194,4.1905,4.1938,4.1944,4.1895,4.1908,4.1895,4.1875,4.1877,4.1855,4.1858,4.182,4.1816,4.1829,4.1806,4.184,4.1801,4.1804,4.1804,4.1808,4.191,4.1934,4.2,4.1874,4.1876,4.1877,0,4.2004,4.1997,4.203,4.2002,4.2004,4.2017,4.2008,4.2011,4.1994,4.1978,4.1972,4.1939,4.1953,4.1911,4.1929,4.1903,4.1902,4.1891,4.1892,4.189,4.1843,4.1909,4.202,4.203,4.189,4.1889,4.1888,0,4.209,4.2089,4.2108,4.2103,4.2071,4.2081,4.2069,4.205,4.2048,4.2041,4.2039,4.2034,4.2031,4.2027,4.1994,4.1967,4.2015,4.1971,4.2001,4.2002,4.2012,4.2012,4.2123,4.2015,4.2015,4.2015,4.2014,0,4.2174,4.2196,4.2146,4.2158,4.2181,4.214,4.2164,4.2146,4.213,4.2137,4.2095,4.2103,4.2059,4.2062,4.2036,4.2054,4.2053,4.204,4.2033,4.2043,4.2044,4.2041,4.2035,4.2017,4.2017,4.2016,4.2016,0,4.2273,4.2241,4.2258,4.2227,4.222,4.2238,4.2211,4.222,4.2198,4.2207,4.2207,4.2172,4.2173,4.214,4.2135,4.2117,4.2146,4.2131,4.2151,4.2146,4.2177,4.2174,4.2289,4.2302,4.2187,4.2188,4.2189,0,4.2327,4.2343,4.2313,4.2315,4.2304,4.2308,4.2306,4.2267,4.2267,4.2249,4.226,4.2258,4.2254,4.2258,4.2232,4.2227,4.2211,4.2252,4.221,4.222,4.221,4.2209,4.2209,4.226,4.2261,4.2263,4.2264,0,4.2427,4.2411,4.2409,4.2402,4.2401,4.2394,4.2384,4.2388,4.2345,4.2347,4.2348,4.2345,4.2339,4.2337,4.2328,4.2314,4.2282,4.2277,4.2284,4.2293,4.2304,4.2297,4.2173,4.2274,4.2273,4.2272,4.2272,4.2271,4.2504,4.2515,4.2496,4.2496,4.2484,4.2476,4.2483,4.2461,4.2461,4.2453,4.243,4.2435,4.2417,4.2401,4.2391,4.2393,4.2373,4.2383,4.2385,4.2388,4.2394,4.2305,4.2392,4.2392,4.2391,4.2391,4.2391,0,4.2601,4.2586,4.2586,4.2573,4.2573,4.2543,4.253,4.2532,4.2536,4.2523,4.2519,4.252,4.2518,4.2491,4.2486,4.2493,4.2478,4.2493,4.2491,4.2488,4.2413,4.2407,4.2505,4.2505,4.2505,4.2505,4.2505,4.2505,4.265,4.2667,4.2648,4.2659,4.2644,4.2647,4.2642,4.2634,4.2623,4.2626,4.2624,4.2606,4.2588,4.2581,4.2577,4.2569,4.2569,4.2589,4.2576,4.2505,4.2494,4.2483,4.2477,4.2589,4.2589,4.2651,4.2652,4.2652]}]]